Flag for U.S.A. Weather past 2 weeks in Wake Island, Wake Island, U.S.A.

Now
82 °F

Mostly cloudy.


Feels Like: 90 °F
Forecast: 84 / 88 °F
Wind: 8 mph from South

Location: Wake Island Airfld

Current Time: Aug 2, 2014 at 1:17:45 AM

Latest Report: Aug 2, 2014 at 12:58 AM


Visibility: N/A

Pressure: 29.93 "Hg

Humidity: 87%

Dew point: 78 °F

Location of Wake IslandLocation

Historic Weather in Wake Island — Graph

°F

Wake Island temperature yesterday

Maximum temperature yesterday: 89 °F (at 12:58 PM)
Minimum temperature yesterday: 80 °F (at 11:58 PM)
Average temperature yesterday: 84 °F

Past Weeks' High & Low Weather Summary

 TemperatureHumidityPressure
High90 °F (Jul 24, 12:58 PM)94% (Jul 18, 5:04 AM)30.03 "Hg (Jul 18, 5:04 AM)
Low78 °F (Jul 26, 5:58 AM)57% (Jul 24, 2:58 PM)29.83 "Hg (Jul 18, 5:04 AM)
Average84 °F76%29.93 "Hg
* Reported Jul 17 11:58 PM — Aug 1 11:58 PM, Wake Island, Weather by CustomWeather, © 2014

Note: Actual official high and low records may vary slightly from our data, if they occured in-between our weather recording intervals... More about our weather records

Advertising

Wake Island weather history for previous 24 hours

 ConditionsComfort  
Time TempWeatherWind HumidityBarometerVisibility
11:58 PM
Aug 1
80 °FThundershowers. Passing clouds.5 mph91%29.92 "HgN/A
11:00 PM82 °FThundershowers. Mostly cloudy.17 mph89%29.91 "Hg4 mi
10:58 PM82 °FThundershowers. Passing clouds.18 mph84%29.93 "HgN/A
10:01 PM82 °FLight rain. Partly cloudy.7 mph84%29.91 "HgN/A
9:02 PM81 °FLight rain. Partly cloudy.17 mph89%29.91 "HgN/A
8:58 PM83 °FPartly cloudy.20 mph80%29.94 "HgN/A
7:58 PM85 °FPassing clouds.10 mph75%29.92 "HgN/A
6:58 PM85 °FScattered clouds.12 mph73%29.91 "HgN/A
5:58 PM86 °FSunny.10 mph71%29.89 "HgN/A
4:58 PM88 °FPassing clouds.8 mph65%29.88 "HgN/A
3:58 PM88 °FPassing clouds.10 mph65%29.90 "HgN/A
2:58 PM88 °FPassing clouds.8 mph65%29.90 "HgN/A
1:58 PM88 °FSunny.12 mph65%29.91 "HgN/A
12:58 PM89 °FPassing clouds.12 mph62%29.94 "HgN/A
11:58 AM87 °FPartly sunny.7 mph67%29.94 "HgN/A
10:58 AM87 °FPassing clouds.7 mph66%29.95 "HgN/A
9:58 AM86 °FScattered clouds.6 mph68%29.94 "HgN/A
8:58 AM85 °FSunny.7 mph70%29.93 "HgN/A
7:58 AM83 °FPassing clouds.6 mph77%29.92 "HgN/A
6:58 AM83 °FPassing clouds.7 mph76%29.91 "HgN/A
5:58 AM82 °FClear.3 mph77%29.90 "HgN/A
4:58 AM83 °FClear.6 mph76%29.90 "HgN/A
3:58 AM83 °FClear.7 mph74%29.90 "HgN/A
2:58 AM83 °FPassing clouds.6 mph74%29.91 "HgN/A
1:58 AM83 °FClear.10 mph75%29.92 "HgN/A
Weather by CustomWeather, © 2014

See weather overviewHow to use our weather pages